www.pogodaiklimat.ru
ПОГОДА в Районге

Архив погоды в Районге (Таиланд)

Время
(UTC), дата
06 13.05
09 13.05
12 13.05
15 13.05
18 13.05
21 13.05
00 14.05
03 14.05
06 14.05
09 14.05
12 14.05
15 14.05
18 14.05
21 14.05
00 15.05
03 15.05
06 15.05
09 15.05
12 15.05
15 15.05
18 15.05
21 15.05
00 16.05
03 16.05
06 16.05
09 16.05
12 16.05
15 16.05
18 16.05
21 16.05
00 17.05
03 17.05
06 17.05
09 17.05
12 17.05
15 17.05
18 17.05
21 17.05
00 18.05
03 18.05
06 18.05
09 18.05
12 18.05
15 18.05
18 18.05
21 18.05
00 19.05
03 19.05
06 19.05
09 19.05
12 19.05
15 19.05
18 19.05
21 19.05
00 20.05
Ветер
(напр.,м/с)
Видим. Явления Облачность Т
(С)
Тd
(С)
f
(%)
Тe
(С)
Тes
(С)
Комфортность P
(гПа)
Po
(гПа)
Тmin
(С)
Tmax
(С)
R
(мм)
R24
(мм)
S
(см)
штиль 0 10 км 5/1 600 м
[Cu hum Cs]
+32.0 +25.7 69 +47 +70 опасность
перегрева
1007.1 1006.5
З 3 10 км 5/1 600 м
[Cu hum Cs]
+32.1 +25.7 69 +47 +53 опасность
перегрева
1004.6 1004.0
З 2 8000 м дымка 5/0
[Cs]
+30.1 +26.5 81 +46 +46 опасность
перегрева
1005.2 1004.6 +33.0
Ю 3 8000 м дымка 3/0
[Cs]
+29.9 +26.5 82 +46 +46 опасность
перегрева
1007.5 1006.9
ЮЗ 3 8000 м дымка 6/3 600 м
[Cu hum Cs]
+30.0 +27.2 85 +48 +48 опасность
перегрева
1007.3 1006.7
Ю 2 8000 м дымка 5/1 600 м
[Cu hum Cs]
+29.6 +25.9 81 +44 +44 опасность
перегрева
1005.9 1005.4
штиль 0 7000 м дымка 9/1 600 м
[Cu hum Cs]
+29.5 +25.2 78 +43 +44 опасность
перегрева
1007.4 1006.8 +29.1
ЮЗ 2 8000 м дымка 9/1 600 м
[Cu hum Cs]
+32.4 +26.0 69 +48 +60 опасность
перегрева
1009.4 1008.9
З 3 8000 м дымка 8/3 600 м
[Sc Cs]
+32.3 +26.3 71 +49 +59 опасность
перегрева
1008.1 1007.5
З 3 7000 м дымка 10/3 600 м
[Sc Ac As Cs]
+31.3 +26.3 75 +47 +50 опасность
перегрева
1006.2 1005.6
ЮЗ 2 7000 м дымка 8/3 600 м
[Cu hum Cs]
+30.0 +26.1 80 +45 +45 опасность
перегрева
1006.3 1005.7 +33.2
штиль 0 7000 м дымка 8/0
[Ac trans Cs]
+30.0 +26.1 80 +45 +45 опасность
перегрева
1009.5 1008.9
штиль 0 7000 м дымка 8/0
[Ac trans Cs]
+29.5 +26.7 85 +46 +46 опасность
перегрева
1009.0 1008.4
ЮЗ 3 8000 м дымка 8/3 600 м
[Cu hum Ac lent Cs]
+29.6 +26.8 85 +46 +46 опасность
перегрева
1007.7 1007.1
ЮЗ 2 8000 м дымка 8/3 600 м
[Cu hum Ac trans Cs]
+30.0 +27.5 86 +48 +49 опасность
перегрева
1008.6 1008.0 +29.5
ЮЗ 3 8000 м дымка 8/3 600 м
[Cu hum Ac trans Cs]
+32.0 +25.7 69 +47 +53 опасность
перегрева
1010.2 1009.6
ЮЗ 4 8000 м в посл. час гроза 10/3 600 м
[Cb cap Ac As Cs]
+31.8 +26.8 75 +49 +54 опасность
перегрева
1009.1 1008.5
ЮЗ 3 8000 м дымка 8/1 600 м
[Cu hum Ac lent Cs]
+32.0 +26.7 74 +49 +53 опасность
перегрева
1005.8 1005.2
ЮЗ 2 8000 м дымка 8/3 600 м
[Cu hum Cs]
+30.2 +27.1 84 +48 +48 опасность
перегрева
1006.6 1006.1 +33.0
ЮЗ 2 8000 м дымка 10/1 600 м
[Cu hum Ac und Cs]
+30.0 +25.8 78 +45 +45 опасность
перегрева
1009.4 1008.8
З 2 8000 м дымка 10/0
[Cs]
+30.0 +26.1 80 +45 +45 опасность
перегрева
1008.7 1008.2
штиль 0 8000 м дымка 8/3 600 м
[Cu med, cong Ac trans Cs]
+29.7 +25.9 80 +44 +44 опасность
перегрева
1007.2 1006.7
З 2 8000 м дымка 8/3 600 м
[Cu hum Cs]
+29.8 +26.0 80 +45 +46 опасность
перегрева
1008.0 1007.4 +29.5
ЮЗ 2 7000 м дымка 8/1 600 м
[Cb cap Ac trans Cs]
+32.1 +26.1 71 +48 +57 опасность
перегрева
1010.0 1009.4
З 2 10 км гроза без осадков 10/5 600 м
[Cb cap Ac As Cs]
+31.0 +26.1 75 +46 +52 опасность
перегрева
1007.9 1007.3
ЮЗ 2 9000 м слаб. дождь {гроза} 10/5 600 м
[Cb cap Ac As Cs]
+28.5 +25.7 85 +42 +44 опасность
перегрева
1005.6 1005.0 0.0
ЮВ 2 10 км {гроза, дождь} 10/4 600 м
[Sc Ac trans Cs]
+28.0 +25.4 86 +41 +41 опасность
перегрева
1006.0 1005.4 +32.0 0.0 0.0
штиль 0 10 км гроза без осадков 10/4 600 м
[Cb cap Ac As Cs]
+27.6 +25.3 87 +40 +40 очень
душно
1009.5 1008.9
штиль 0 8000 м гроза, ливневой дождь 10/5 600 м
[Cb cap Ac As]
+27.0 +25.6 92 +40 +40 очень
душно
1008.8 1008.2 1 1.2
штиль 0 6000 м слаб. дождь {гроза} 10/3 600 м
[Sc Ac As Cs]
+26.5 +25.1 92 +38 +38 очень
душно
1007.4 1006.8 2
штиль 0 7000 м дымка {гроза, дождь} 8/3 600 м
[Cu hum Ac lent Cs]
+26.5 +25.1 92 +38 +39 очень
душно
1008.0 1007.4 +25.5 0.3 3.6
штиль 0 4000 м слаб. дождь 10/6 600 м
[Cu Sc Ac As]
+28.2 +25.1 83 +41 +43 опасность
перегрева
1010.0 1009.4 2
СВ 2 10 км {гроза, дождь} 9/1 600 м
[Cb cap Ac lent Cs]
+30.5 +25.6 75 +45 +55 опасность
перегрева
1008.2 1007.6 0.4 5.6
Ю 3 12 км 10/1 600 м
[Cu hum Ac trans Cs]
+31.7 +26.3 73 +48 +51 опасность
перегрева
1006.4 1005.9
Ю 1 10 км 10/1 600 м
[Cu hum Ac lent Cs]
+30.0 +25.8 78 +45 +45 опасность
перегрева
1007.3 1006.7 +32.0 5.6
ЮЗ 2 10 км 8/3 600 м
[Cu Sc Cs]
+29.5 +26.0 81 +44 +44 опасность
перегрева
1009.4 1008.8
З 3 10 км 8/1 600 м
[Cu hum Ac und Cs]
+27.8 +23.7 78 +38 +38 очень
душно
1009.3 1008.7 4.4
штиль 0 8000 м дымка 10/5 600 м
[Sc Ac As Cs]
+26.5 +25.1 92 +38 +38 очень
душно
1008.6 1008.0
штиль 0 8000 м дымка 10/5 600 м
[Sc Ac As Cs]
+26.5 +25.1 92 +38 +39 очень
душно
1009.3 1008.7 +26.0 2.0
штиль 0 10 км 10/3 600 м
[Cb cap Ac trans Cs]
+30.4 +25.8 76 +45 +52 опасность
перегрева
1010.2 1009.6
ЮЗ 2 12 км гроза без осадков 10/3 600 м
[Cb cap Ac trans Cs]
+30.5 +26.0 77 +46 +54 опасность
перегрева
1009.1 1008.5
ЮЗ 2 12 км {гроза} 10/3 600 м
[Cb cap Ac trans Cs]
+30.0 +25.0 75 +43 +46 опасность
перегрева
1006.7 1006.1
штиль 0 7000 м дымка {гроза} 10/3 600 м
[Sc Ac trans Cs]
+29.2 +24.9 78 +42 +42 опасность
перегрева
1008.0 1007.4 +32.2
штиль 0 7000 м дымка 9/3 600 м
[Cb cap Ac trans Cs]
+29.5 +25.2 78 +43 +43 опасность
перегрева
1010.3 1009.8
штиль 0 6000 м дымка {гроза, дождь} 10/3 600 м
[Sc Ac As Cs]
+25.3 +24.6 96 +36 +36 очень
душно
1010.4 1009.8 12 12.2
штиль 0 8000 м дымка {дождь} 10/0
[Ac As Cs]
+25.2 +24.2 94 +35 +35 очень
душно
1009.3 1008.7 0.2
штиль 0 8000 м слаб. дождь 10/5 600 м
[Cu Sc Ac As Cs]
+25.0 +24.1 95 +34 +35 очень
душно
1010.5 1009.9 +24.8 12 24.6
штиль 0 9000 м гроза, ливневой дождь 10/4
[Cb cap Ac As Cs]
+27.0 +25.9 94 +40 +47 очень
душно
1011.6 1011.0 3
Ю 2 8000 м дымка {гроза, дождь} 9/3 600 м
[Cu hum Ac As Cs]
+30.1 +26.0 79 +45 +54 опасность
перегрева
1009.4 1008.8 2 30.1
ЮЗ 2 9000 м дымка 9/3 600 м
[Cu hum Ac trans Cs]
+31.2 +25.3 71 +45 +48 опасность
перегрева
1006.7 1006.2
ЮЗ 4 8000 м дымка 10/5 600 м
[Sc Ac As Cs]
+29.4 +25.6 80 +43 +43 опасность
перегрева
1008.0 1007.4 +32.0 30.1
ЮЗ 5 8000 м дымка 10/3 600 м
[Sc Ac As Cs]
+29.7 +25.8 80 +44 +44 опасность
перегрева
1009.8 1009.2
ЮЗ 4 8000 м дымка 10/3 600 м
[Sc Ac As Cs]
+29.4 +24.8 76 +42 +42 опасность
перегрева
1008.4 1007.8 17.9
ЮЗ 4 9000 м дымка 10/4 600 м
[Sc Ac As Cs]
+29.3 +25.2 79 +43 +43 опасность
перегрева
1007.3 1006.7
ЮЗ 4 9000 м в посл. час дождь 10/5 600 м
[Sc Ac As Cs]
+27.3 +25.4 89 +40 +40 очень
душно
1008.3 1007.8 +27.2 2 8.0
Местоположение метеостанции Районг (Таиланд): широта 12.63 долгота 101.35 высота над уровнем моря 5 м.
В архиве по умолчанию представлена погода в Районге за последнюю неделю. Архивные данные за месяц целиком и за предыдущие месяцы, начиная с января 2011 года, Вы можете получить, выбрав интересующий диапазон дат из раскрывающегося списка и нажав кнопку "Найти!".
*Определитесь, кто Вы:
Внимание! Время в таблицах - всемирное. Для получения местного времени необходимо прибавить поправку, которая равна 7 ч.
Смотрите также архив погоды в соседних городах и на ближайших метеорологических станциях:
Партнеры нашего сайта:      
Пояснения к столбцам:
  • Ветер - указаны скорость ветра в м/с - средняя за 10 мин, порывы в срок и между сроками (в фигурных скобках) и направление, откуда дует ветер: С - северный,
  • СВ - северо-восточный, В - восточный, ЮВ - юго-восточный, Ю - южный, ЮЗ - юго-западный, З - западный, СЗ - северо-западный.
  • Видимость - горизонтальная дальность видимости в метрах или километрах. При видимости от 1 до 10 км при отсутствии осадков обычно наблюдается дымка, при ухудшении видимости до 1 км и менее - туман. В сухую погоду видимость может ухудшаться дымом, пылью или мглою.
  • Явления - указаны атмосферные явления, наблюдавшиеся в срок или в последний час перед сроком; фигурными скобками обозначены явления, наблюдавшиеся между сроками (за 1-3 часа до срока); квадратными скобками обозначены град или гололедные отложения с указанием их диаметра в мм.
  • Облачность - указаны через наклонную черту общая и нижняя облачность в баллах и высота нижней границы облаков в метрах; квадратными скобками обозначены формы облаков: Ci - перистые, Cs - перисто-слоистые, Cc - перисто-кучевые, Ac - высококучевые, As - высокослоистые, Sc - слоисто-кучевые, Ns - слоисто-дождевые, Cu - кучевые, Cb - кучево-дождевые. Подробнее классификацию облаков см. в Атласе облаков (PDF).
  • T - Температура воздуха - температура, измеренная на высоте 2 м над землей.
  • Td - Температура точки росы - температура, при понижении до которой содержащийся в воздухе водяной пар достигнет насыщения.
  • f - Относительная влажность воздуха - влажноcть воздуха, измеренная на высоте 2 м над землей.
  • Te - Эффективная температура - температура, которую ощущает одетый по сезону человек в тени. Характеристика душности погоды. При расчете учитывается влияние влажности воздуха и скорости ветра на теплоощущения человека.
  • Tes - Эффективная температура на солнце - температура, которую ощущает человек, с поправкой на солнечный нагрев. Характеристика знойности погоды. Зависит от высоты солнца над горизонтом, облачности и скорости ветра. Ночью, в пасмурную погоду, а также при ветре 12 м/с и более поправка равна нулю.
  • P - Атмосферное давление - приведенное к уровню моря атмосферное давление.
  • Po - Атмосферное давление - измеренное на уровне метеостанции атмосферное давление.
  • Tmin - Минимальная температура - минимум температуры воздуха на высоте 2 м над землей.
  • Tmax - Максимальная температура - максимум температуры воздуха на высоте 2 м над землей.
  • R - Количество осадков - Количество выпавших осадков за период времени, мм. При наведении курсора мыши на число - период времени, за который выпало указанное количество осадков.
  • R24 - Количество осадков - Количество выпавших осадков за 24 часа, мм.
  • S - Снежный покров - Высота снежного покрова, см. При наведении курсора мыши на число - состояние снежного покрова и степень покрытия местности в баллах.